sat.trackr.live / text

‹ back to catalog

QIANFAN-6

NORAD 60384 · 2024-140F

PAYLOAD ACTIVE UNKNOWN

§ Identity

Operator
Country
PRC
Launch date
2024-08-06
Launch site
TAISC
Launch vehicle
Mass (kg)
RCS (m²)

External: N2YO · Heavens-Above · Gunter

§ Orbital elements

Epoch: 2026-05-25T03:48:48.082176Z

Period
106.59 min
Inclination
88.9719°
Eccentricity
0.0015102
Mean motion
13.51009001 rev/d
Perigee alt
1,057.3 km
Apogee alt
1,079.8 km
Semi-major
7,446.7 km
B*
1.1504e-4
RAAN
282.0720°
Arg perigee
86.6409°
Mean anomaly
273.6469°
Rev number
8,956

§ Raw data

QIANFAN-61 60384U 24140F   26145.15888984  .00000087  00000+0  11504-3 0  99992 60384  88.9719 282.0720 0015102  86.6409 273.6469 13.51009001 89563

JSON: /api/v1/satellites/60384 · /tle

For live sub-satellite position, see the globe view (requires WebGL).

§ Visibility from observer

Set your observer location to see the next 7 days of passes ≥ 10°. The values pass through the URL so the page stays shareable.

No JS? Fill the form by hand. The geolocation button needs JavaScript.